Marshfield, WI

6:30 PM CST on November 11, 2019 (GMT -0600)
Marshfield Municipal

Weather History for KMFI - October, 2019

Change the Weather History Date:

Wednesday, October 23, 2019

  Actual Average Record
Temperature  
Mean Temperature 42 °F -  
Max Temperature 48 °F 56 °F 79 °F (1963)
Min Temperature 36 °F 35 °F 13 °F (1969)
Degree Days  
Heating Degree Days 24    
Moisture  
Dew Point 33 °F    
Average Humidity 75    
Maximum Humidity 83    
Minimum Humidity 59    
Precipitation  
Precipitation 0.00 in - - ()
Sea Level Pressure  
Sea Level Pressure 29.85 in    
Wind  
Wind Speed 11 mph (WNW)    
Max Wind Speed 16 mph    
Max Gust Speed 28 mph    
Visibility 10 miles    
Events Snow    
Averages and records for this station are not official NWS values.
T = Trace of Precipitation, MM = Missing Value Source: NWS Daily Summary

Daily Weather History Graph

Daily Weather History Graph

Search for Another Location

Airport or City:

Astronomy

Oct. 23, 2019 Rise Set
Actual Time 7:26 AM CDT 6:03 PM CDT
Civil Twilight 6:56 AM CDT 6:33 PM CDT
Nautical Twilight 6:22 AM CDT 7:07 PM CDT
Astronomical Twilight 5:48 AM CDT 7:40 PM CDT
Moon 1:26 AM CDT (10/23) 4:09 PM CDT (10/23)
Length of Visible Light 11h 36m
Length of Day
10h 37m
Waning Crescent, 26% of the Moon is Illuminated
Oct 23
Waning Crescent
Oct 27
New
Nov 4
First Quarter
Nov 12
Full
Nov 19
Last Quarter

Hourly Weather History & Observations

Time (CDT) Temp. Windchill Dew Point Humidity Pressure Visibility Wind Dir Wind Speed Gust Speed Precip Events Conditions
12:54 AM 39.9 °F 32.1 °F 35.1 °F 83% 29.64 in 10.0 mi West 13.8 mph 23.0 mph N/A   Overcast
1:54 AM 39.9 °F 31.4 °F 34.0 °F 79% 29.66 in 10.0 mi West 16.1 mph 26.5 mph N/A   Overcast
2:54 AM 39.9 °F 32.1 °F 34.0 °F 79% 29.67 in 10.0 mi West 13.8 mph 27.6 mph N/A   Overcast
3:54 AM 39.9 °F 33.9 °F 34.0 °F 79% 29.68 in 10.0 mi West 9.2 mph - N/A   Mostly Cloudy
4:03 AM 39.9 °F 33.4 °F 34.0 °F 79% 29.65 in 10.0 mi West 10.4 mph 21.9 mph N/A   Overcast
4:54 AM 39.9 °F 32.1 °F 33.1 °F 77% 29.71 in 10.0 mi West 13.8 mph 20.7 mph N/A   Overcast
5:54 AM 39.9 °F 32.5 °F 30.9 °F 70% 29.73 in 10.0 mi West 12.7 mph - N/A   Overcast
6:54 AM 39.0 °F 31.4 °F 32.0 °F 76% 29.75 in 10.0 mi WNW 12.7 mph - N/A   Overcast
7:54 AM 39.0 °F 32.3 °F 33.1 °F 79% 29.77 in 10.0 mi West 10.4 mph - N/A   Overcast
8:54 AM 39.0 °F 31.8 °F 32.0 °F 76% 29.81 in 10.0 mi West 11.5 mph - N/A   Overcast
10:54 AM 39.9 °F 32.1 °F 32.0 °F 73% 29.85 in 10.0 mi West 13.8 mph - N/A   Overcast
11:54 AM 39.9 °F 32.5 °F 32.0 °F 73% 29.86 in 10.0 mi WNW 12.7 mph - N/A   Overcast
12:54 PM 44.1 °F 38.1 °F 34.0 °F 68% 29.88 in 10.0 mi WNW 11.5 mph - N/A   Mostly Cloudy
1:41 PM 44.1 °F 40.1 °F 33.1 °F 65% 29.84 in 10.0 mi West 6.9 mph - N/A   Scattered Clouds
1:54 PM 45.0 °F 41.2 °F 34.0 °F 65% 29.86 in 10.0 mi WNW 6.9 mph - N/A   Scattered Clouds
2:54 PM 46.9 °F - 33.1 °F 59% 29.86 in 10.0 mi West 11.5 mph - N/A   Clear
3:54 PM 45.0 °F 40.1 °F 33.1 °F 63% 29.89 in 10.0 mi WNW 9.2 mph - N/A   Clear
4:54 PM 43.0 °F 38.2 °F 34.0 °F 71% 29.92 in 10.0 mi NNW 8.1 mph - N/A   Partly Cloudy
5:54 PM 41.0 °F 35.8 °F 34.0 °F 76% 29.96 in 10.0 mi NW 8.1 mph - N/A   Partly Cloudy
6:54 PM 39.9 °F 35.1 °F 33.1 °F 77% 29.98 in 10.0 mi NW 6.9 mph - N/A   Clear
7:54 PM 39.9 °F 36.7 °F 33.1 °F 77% 30.00 in 10.0 mi NW 4.6 mph - N/A   Scattered Clouds
8:54 PM 39.0 °F 35.7 °F 33.1 °F 79% 30.03 in 10.0 mi West 4.6 mph - N/A   Overcast
9:54 PM 37.9 °F 33.5 °F 33.1 °F 83% 30.04 in 10.0 mi WNW 5.8 mph - N/A   Clear
10:54 PM 37.9 °F 32.1 °F 33.1 °F 83% 30.06 in 10.0 mi NW 8.1 mph - 0.00 in Snow Light Snow
11:54 PM 36.0 °F 29.6 °F 30.9 °F 82% 30.07 in 10.0 mi WNW 8.1 mph - 0.00 in   Clear